Previsão horária em Barra de São Francisco

Hoje, 26 Outubro, Segunda-feira

Tempo Temperatura Precipitação Vento Pressão Humidade
00:00 +22°C° 1.7 mm 1 m/s 733 mmHg 97%
01:00 +22°C° 0.4 mm 1 m/s 732 mmHg 97%
02:00 +22°C° 0.4 mm 1 m/s 732 mmHg 97%
03:00 +22°C° 0.4 mm 1 m/s 732 mmHg 97%
04:00 +22°C° 0.1 mm 1 m/s 732 mmHg 96%
05:00 +22°C° 0.1 mm 1 m/s 732 mmHg 95%
06:00 +23°C° 0.1 mm 1 m/s 732 mmHg 95%
07:00 +24°C° 0 mm 1 m/s 732 mmHg 90%
08:00 +26°C° 0 mm 2 m/s 733 mmHg 85%
09:00 +27°C° 0 mm 3 m/s 733 mmHg 80%
10:00 +28°C° 0.1 mm 3 m/s 732 mmHg 76%
11:00 +29°C° 0.1 mm 3 m/s 732 mmHg 72%
12:00 +30°C° 0.1 mm 4 m/s 731 mmHg 68%
13:00 +30°C° 0.2 mm 4 m/s 731 mmHg 67%
14:00 +32°C° 0.2 mm 4 m/s 731 mmHg 66%
15:00 +32°C° 0.2 mm 4 m/s 730 mmHg 66%
16:00 +29°C° 1 mm 3 m/s 730 mmHg 72%
17:00 +28°C° 1 mm 2 m/s 731 mmHg 77%
18:00 +26°C° 1 mm 1 m/s 731 mmHg 83%
19:00 +26°C° 0.8 mm 1 m/s 731 mmHg 84%
20:00 +25°C° 0.8 mm 1 m/s 732 mmHg 85%
21:00 +25°C° 0.8 mm 1 m/s 732 mmHg 86%
22:00 +24°C° 0.1 mm 1 m/s 732 mmHg 89%
23:00 +23°C° 0.1 mm 1 m/s 732 mmHg 92%

Amanhã, 27 Outubro, Terça-feira

Tempo Temperatura Precipitação Vento Pressão Humidade
00:00 +23°C° 0.1 mm 1 m/s 732 mmHg 94%
01:00 +23°C° 0 mm 1 m/s 732 mmHg 95%
02:00 +20°C° 0 mm 0 m/s 731 mmHg 96%
03:00 +20°C° 0 mm 0 m/s 731 mmHg 96%
04:00 +20°C° 0 mm 0 m/s 731 mmHg 95%
05:00 +21°C° 0 mm 0 m/s 732 mmHg 94%
06:00 +21°C° 0 mm 0 m/s 732 mmHg 94%
07:00 +23°C° 0 mm 0 m/s 732 mmHg 87%
08:00 +27°C° 0 mm 1 m/s 732 mmHg 80%
09:00 +29°C° 0 mm 1 m/s 732 mmHg 73%
10:00 +30°C° 0.1 mm 1 m/s 732 mmHg 69%
11:00 +31°C° 0.1 mm 2 m/s 732 mmHg 64%
12:00 +32°C° 0.1 mm 2 m/s 731 mmHg 59%
13:00 +32°C° 0.5 mm 2 m/s 731 mmHg 59%
14:00 +32°C° 0.5 mm 2 m/s 730 mmHg 59%
15:00 +32°C° 0.5 mm 1 m/s 730 mmHg 59%
16:00 +31°C° 0.4 mm 1 m/s 730 mmHg 65%
17:00 +29°C° 0.4 mm 1 m/s 730 mmHg 71%
18:00 +28°C° 0.4 mm 1 m/s 731 mmHg 77%
19:00 +27°C° 0.9 mm 1 m/s 731 mmHg 82%
20:00 +26°C° 0.9 mm 1 m/s 732 mmHg 87%
21:00 +25°C° 0.9 mm 1 m/s 732 mmHg 92%
22:00 +25°C° 0.1 mm 1 m/s 732 mmHg 93%
23:00 +24°C° 0.1 mm 1 m/s 732 mmHg 93%

Depois de amanhã, 28 Outubro, Quarta-feira

Tempo Temperatura Precipitação Vento Pressão Humidade
00:00 +24°C° 0.1 mm 1 m/s 732 mmHg 94%
01:00 +24°C° 0 mm 1 m/s 732 mmHg 94%
02:00 +23°C° 0 mm 1 m/s 731 mmHg 93%
03:00 +23°C° 0 mm 1 m/s 731 mmHg 93%
04:00 +22°C° 0 mm 0 m/s 732 mmHg 91%
05:00 +22°C° 0 mm 0 m/s 732 mmHg 90%
06:00 +23°C° 0 mm 0 m/s 732 mmHg 89%
07:00 +24°C° 0 mm 0 m/s 733 mmHg 84%
08:00 +26°C° 0 mm 0 m/s 733 mmHg 79%
09:00 +29°C° 0 mm 1 m/s 734 mmHg 74%
10:00 +30°C° 0.3 mm 1 m/s 733 mmHg 70%
11:00 +31°C° 0.3 mm 1 m/s 733 mmHg 67%
12:00 +32°C° 0.3 mm 1 m/s 733 mmHg 63%
13:00 +34°C° 0.2 mm 2 m/s 732 mmHg 61%
14:00 +34°C° 0.2 mm 2 m/s 732 mmHg 60%
15:00 +34°C° 0.2 mm 2 m/s 731 mmHg 58%
16:00 +31°C° 0.7 mm 2 m/s 732 mmHg 68%
17:00 +29°C° 0.7 mm 2 m/s 732 mmHg 78%
18:00 +27°C° 0.7 mm 3 m/s 732 mmHg 87%
19:00 +27°C° 0.3 mm 3 m/s 733 mmHg 90%
20:00 +26°C° 0.3 mm 3 m/s 733 mmHg 93%
21:00 +26°C° 0.3 mm 3 m/s 733 mmHg 95%
22:00 +26°C° 0 mm 2 m/s 733 mmHg 95%
23:00 +25°C° 0 mm 2 m/s 733 mmHg 95%

29 Outubro, Quinta-feira

Tempo Temperatura Precipitação Vento Pressão Humidade
00:00 +25°C° 0 mm 2 m/s 733 mmHg 94%
01:00 +25°C° 0.1 mm 2 m/s 733 mmHg 95%
02:00 +25°C° 0.1 mm 2 m/s 733 mmHg 95%
03:00 +25°C° 0.1 mm 1 m/s 733 mmHg 95%
04:00 +25°C° 0.1 mm 1 m/s 734 mmHg 95%
05:00 +25°C° 0.1 mm 1 m/s 734 mmHg 95%
06:00 +25°C° 0.1 mm 1 m/s 734 mmHg 94%
07:00 +26°C° 0.2 mm 2 m/s 735 mmHg 91%
08:00 +27°C° 0.2 mm 2 m/s 735 mmHg 87%
09:00 +27°C° 0.2 mm 3 m/s 736 mmHg 83%
10:00 +28°C° 0.3 mm 3 m/s 735 mmHg 78%
11:00 +30°C° 0.3 mm 3 m/s 735 mmHg 73%
12:00 +31°C° 0.3 mm 3 m/s 735 mmHg 68%
13:00 +31°C° 0.8 mm 3 m/s 735 mmHg 68%
14:00 +31°C° 0.8 mm 3 m/s 734 mmHg 69%
15:00 +30°C° 0.8 mm 3 m/s 734 mmHg 69%
16:00 +30°C° 0 mm 2 m/s 734 mmHg 73%
17:00 +29°C° 0 mm 2 m/s 734 mmHg 76%
18:00 +28°C° 0 mm 2 m/s 734 mmHg 79%
19:00 +27°C° 0.1 mm 2 m/s 735 mmHg 82%
20:00 +26°C° 0.1 mm 3 m/s 735 mmHg 84%
21:00 +26°C° 0.1 mm 3 m/s 735 mmHg 86%
22:00 +25°C° 0.5 mm 3 m/s 735 mmHg 89%
23:00 +25°C° 0.5 mm 3 m/s 735 mmHg 91%

30 Outubro, Sexta-feira

Tempo Temperatura Precipitação Vento Pressão Humidade
00:00 +24°C° 0.5 mm 2 m/s 735 mmHg 93%
01:00 +24°C° 1.1 mm 2 m/s 735 mmHg 94%
02:00 +24°C° 1.1 mm 2 m/s 735 mmHg 95%
03:00 +24°C° 1.1 mm 1 m/s 735 mmHg 95%
04:00 +24°C° 0.3 mm 1 m/s 735 mmHg 95%
05:00 +24°C° 0.3 mm 1 m/s 736 mmHg 94%
06:00 +24°C° 0.3 mm 1 m/s 736 mmHg 93%
07:00 +25°C° 0 mm 2 m/s 737 mmHg 89%
08:00 +26°C° 0 mm 2 m/s 737 mmHg 85%
09:00 +27°C° 0 mm 2 m/s 737 mmHg 81%
10:00 +28°C° 0 mm 3 m/s 737 mmHg 75%
11:00 +29°C° 0 mm 3 m/s 737 mmHg 70%
12:00 +32°C° 0 mm 4 m/s 736 mmHg 64%
13:00 +31°C° 0.4 mm 3 m/s 736 mmHg 64%
14:00 +31°C° 0.4 mm 3 m/s 735 mmHg 65%
15:00 +31°C° 0.4 mm 3 m/s 735 mmHg 65%
16:00 +30°C° 0.3 mm 3 m/s 735 mmHg 69%
17:00 +29°C° 0.3 mm 2 m/s 735 mmHg 74%
18:00 +27°C° 0.3 mm 2 m/s 735 mmHg 78%
19:00 +27°C° 0 mm 2 m/s 736 mmHg 82%
20:00 +26°C° 0 mm 2 m/s 736 mmHg 87%
21:00 +25°C° 0 mm 2 m/s 736 mmHg 91%
22:00 +25°C° 1.1 mm 2 m/s 736 mmHg 92%
23:00 +25°C° 1.1 mm 1 m/s 736 mmHg 93%

31 Outubro, Sábado

Tempo Temperatura Precipitação Vento Pressão Humidade
00:00 +25°C° 1.1 mm 1 m/s 736 mmHg 94%
01:00 +25°C° 0.7 mm 1 m/s 736 mmHg 95%
02:00 +24°C° 0.7 mm 1 m/s 736 mmHg 95%
03:00 +24°C° 0.7 mm 1 m/s 736 mmHg 96%
Mostrar mais